Location: Asheville, NC
(35.6000°N, 82.5500°W)
Time: 16:22:32
(UTC-05:00)

CUTE 1.7 + AOD 2 - Pass Details

Date: 13 February 2018
Orbit: 594 x 614 km, 97.6° (Epoch: 20 February)

Event Time Altitude Azimuth Distance (km) Brightness Sun altitude
Rises 06:32:20 0° 28° (NNE) 2,838 ? -10.1°
Reaches altitude 10° 06:34:55 10° 44° (NE) 1,933 ? -9.6°
Maximum altitude 06:38:11 22° 95° (E) 1,323 ? -8.9°
Drops below altitude 10° 06:41:27 10° 147° (SSE) 1,930 ? -8.3°
Sets 06:44:00 0° 162° (SSE) 2,832 ? -7.8°
